Location: Marcé
(47.5801°N, 0.3280°W)
Time: 18:55:37
(UTC+01:00)

S-56A Canister/Altair - Pass Details

Date: 02 December 2021
Orbit: 633 x 2499 km, 38.9° (Epoch: 18 January)

Event Time Altitude Azimuth Distance (km) Brightness Sun altitude
Exits shadow 05:31:52 20° 167° (SSE) 1,555 9.2 -29.2°
Drops below altitude 10° 05:33:54 10° 143° (SE) 2,065 10.2 -28.8°
Sets 05:36:23 0° 130° (SE) 2,921 11.3 -28.4°
